Date,TemperatureHighF,TemperatureAvgF,TemperatureLowF,DewpointHighF,DewpointAvgF,DewpointLowF,HumidityHigh,HumidityAvg,HumidityLow,PressureMaxIn,PressureMinIn,WindSpeedMaxMPH,WindSpeedAvgMPH,GustSpeedMaxMPH,PrecipitationSumIn
2013-1-1,26.8,17.8,10.5,16.7,11.6,6.6,85,76,61,30.15,30.01,17,3,17,0.00
2013-1-2,33.7,21.1,12.2,13.6,7.5,1.0,71,56,37,30.23,30.13,15,5,15,0.00
2013-1-3,27.9,12.3,2.9,8.7,2.3,-2.4,80,65,43,30.24,30.10,10,2,12,0.00
2013-1-4,30.0,14.3,4.0,10.7,4.1,-1.6,79,65,43,30.10,30.00,10,2,10,0.00
2013-1-5,25.9,14.0,5.9,11.5,5.1,-0.4,83,68,51,30.21,30.07,9,2,12,0.00
2013-1-6,30.7,17.1,7.8,14.5,8.6,2.4,83,70,48,30.08,29.82,13,2,13,0.00
2013-1-7,39.8,28.1,14.2,22.1,15.4,8.2,79,60,40,29.88,29.61,37,8,44,0.00
2013-1-8,45.4,38.9,27.2,21.6,18.2,15.1,69,44,32,29.99,29.62,44,17,51,0.00
2013-1-9,46.6,33.4,23.7,29.6,22.1,15.9,100,64,43,30.03,29.66,39,9,39,0.00
2013-1-10,46.9,29.8,18.1,27.2,21.5,14.4,87,73,46,29.66,29.35,28,8,39,0.00
2013-1-11,18.1,9.7,7.2,14.4,6.0,2.9,87,85,82,29.93,29.42,38,18,40,0.04
2013-1-12,12.8,6.9,1.3,7.7,2.6,-2.9,84,82,77,29.99,29.92,13,2,15,0.00
2013-1-13,14.5,3.3,-5.4,8.4,-1.3,-10.0,94,81,73,30.06,29.99,8,2,9,0.00
2013-1-14,10.3,3.7,-8.2,4.2,-1.8,-12.9,92,78,69,30.07,29.92,19,3,19,0.00
2013-1-15,21.2,13.3,8.5,12.2,8.1,4.0,86,79,65,30.11,29.98,11,3,14,0.02
2013-1-16,24.9,13.3,4.1,15.6,7.5,-0.2,94,78,66,30.29,30.11,9,2,10,0.01
2013-1-17,25.0,13.4,2.8,15.6,7.9,-1.2,88,79,66,30.33,30.08,12,2,13,0.00
2013-1-18,45.0,25.9,10.8,22.4,14.4,6.4,92,65,34,30.09,29.88,32,7,35,0.01
2013-1-19,40.4,30.9,20.4,20.3,15.8,11.0,77,55,35,30.16,29.98,30,6,30,0.00
2013-1-20,39.6,27.3,12.3,21.4,16.3,7.7,83,64,36,30.28,30.04,28,6,36,0.00
2013-1-21,32.0,19.3,11.3,20.3,13.7,8.2,95,79,62,30.16,29.94,14,3,14,0.00
2013-1-22,33.4,21.3,10.4,20.4,14.3,6.7,92,75,58,30.04,29.95,14,2,15,0.00
2013-1-23,33.4,24.0,17.1,20.6,16.5,10.7,83,73,58,30.04,29.90,14,2,14,0.00
2013-1-24,53.6,37.5,15.3,28.7,21.3,10.1,82,55,35,30.01,29.80,45,14,46,0.00
2013-1-25,48.7,38.9,27.3,30.5,24.4,19.5,80,57,37,30.02,29.87,33,9,33,0.00
2013-1-26,46.3,31.9,23.8,28.6,23.0,18.8,84,71,47,29.87,29.63,11,3,12,0.00
2013-1-27,38.4,31.5,26.3,29.9,26.2,20.6,92,81,70,29.71,29.60,20,9,26,0.00
2013-1-28,35.4,25.8,17.6,22.4,17.4,7.3,92,71,50,29.74,29.63,17,4,17,0.05
2013-1-29,26.7,16.5,6.1,21.7,10.9,0.5,100,79,52,29.98,29.59,24,5,28,0.01
2013-1-30,20.7,16.2,6.7,18.0,12.3,2.6,89,84,80,29.88,29.77,10,3,10,0.00
2013-1-31,28.9,22.0,15.8,22.3,18.1,12.9,90,85,71,30.06,29.88,15,4,15,0.04